Sanborn, NY

4:46 AM EST on December 08, 2016 (GMT -0500)
Niagara Falls International

Weather History for KIAG - January, 2014

Change the Weather History Date:

Sunday, January 12, 2014

  Actual Average Record
Temperature  
Mean Temperature 32 °F -  
Max Temperature 33 °F 27 °F 57 °F (2005)
Min Temperature 30 °F 15 °F 12 °F (1997)
Degree Days  
Heating Degree Days 34    
Moisture  
Dew Point 27 °F    
Average Humidity 79    
Maximum Humidity 86    
Minimum Humidity 75    
Precipitation  
Precipitation 0.00 in - - ()
Sea Level Pressure  
Sea Level Pressure 29.88 in    
Wind  
Wind Speed 15 mph (SW)    
Max Wind Speed 18 mph    
Max Gust Speed 28 mph    
Visibility 9 miles    
Events Snow    
Averages and records for this station are not official NWS values.
T = Trace of Precipitation, MM = Missing Value Source: NWS Daily Summary

Daily Weather History Graph

Daily Weather History Graph

Search for Another Location

Airport or City:

Trip Planner

Search our weather history database for the weather conditions in past years. The results will help you decide how hot, cold, wet, or windy it might be!

Date:

Astronomy

Jan. 12, 2014 Rise Set
Actual Time 7:45 AM EST 5:02 PM EST
Civil Twilight 7:14 AM EST 5:34 PM EST
Nautical Twilight 6:38 AM EST 6:09 PM EST
Astronomical Twilight 6:04 AM EST 6:43 PM EST
Moon 2:29 PM EST (1/12) 4:42 AM EST (1/12)
Length of Visible Light 10h 20m
Length of Day
9h 16m
Waxing Gibbous, 89% of the Moon is Illuminated
Jan 12
Waxing Gibbous
Jan 15
Full
Jan 24
Last Quarter
Jan 30
New
Feb 6
First Quarter

Hourly Weather History & Observations

Time (EST) Temp. Windchill Dew Point Humidity Pressure Visibility Wind Dir Wind Speed Gust Speed Precip Events Conditions
5:53 AM 33.1 °F 23.0 °F 28.0 °F 82% 29.71 in 10.0 mi West 15.0 mph - N/A   Overcast
6:53 AM 33.8 °F 23.5 °F 28.4 °F 81% 29.75 in 10.0 mi West 16.1 mph - N/A   Overcast
7:53 AM 33.8 °F 23.2 °F 26.6 °F 75% 29.79 in 10.0 mi West 17.3 mph 21.9 mph N/A   Overcast
8:35 AM 33.8 °F 23.9 °F 26.6 °F 75% 29.76 in 10.0 mi West 15.0 mph 20.7 mph N/A   Light Drizzle
8:53 AM 33.8 °F 23.5 °F 26.6 °F 75% 29.82 in 10.0 mi West 16.1 mph 25.3 mph N/A   Light Drizzle
9:53 AM 33.8 °F 25.3 °F 26.6 °F 75% 29.85 in 9.0 mi West 11.5 mph - N/A   Light Drizzle
10:53 AM 33.8 °F 24.8 °F 26.6 °F 75% 29.90 in 8.0 mi WSW 12.7 mph - N/A Snow Light Snow
11:28 AM 33.8 °F 23.9 °F 26.6 °F 75% 29.85 in 8.0 mi WSW 15.0 mph - N/A   Overcast
11:53 AM 33.8 °F 23.9 °F 26.6 °F 75% 29.90 in 10.0 mi WSW 15.0 mph - N/A   Overcast
12:22 PM 33.8 °F 23.9 °F 26.6 °F 75% 29.86 in 8.0 mi WSW 15.0 mph - N/A Snow Light Snow
12:53 PM 33.8 °F 24.8 °F 26.6 °F 75% 29.89 in 8.0 mi WSW 12.7 mph - N/A Snow Light Snow
1:20 PM 33.8 °F 24.3 °F 26.6 °F 75% 29.84 in 9.0 mi WSW 13.8 mph - N/A   Overcast
1:53 PM 33.8 °F 23.5 °F 28.4 °F 81% 29.89 in 10.0 mi SW 16.1 mph - N/A   Overcast
2:53 PM 33.8 °F 24.8 °F 28.4 °F 81% 29.91 in 10.0 mi SW 12.7 mph 23.0 mph N/A   Mostly Cloudy
3:24 PM 33.8 °F 22.8 °F 28.4 °F 81% 29.89 in 9.0 mi SW 18.4 mph 23.0 mph N/A   Overcast
3:43 PM 33.8 °F 23.9 °F 28.4 °F 81% 29.90 in 8.0 mi SW 15.0 mph - N/A   Overcast
3:53 PM 33.8 °F 24.3 °F 28.4 °F 81% 29.94 in 8.0 mi SW 13.8 mph - N/A   Overcast
4:53 PM 33.8 °F 25.3 °F 26.6 °F 75% 29.94 in 8.0 mi SW 11.5 mph - N/A   Mostly Cloudy
5:53 PM 32.0 °F 21.6 °F 26.6 °F 80% 29.93 in 9.0 mi SW 15.0 mph 27.6 mph N/A   Scattered Clouds
6:53 PM 32.0 °F 22.1 °F 26.6 °F 80% 29.98 in 8.0 mi SW 13.8 mph - N/A   Scattered Clouds
7:53 PM 30.2 °F 20.2 °F 26.6 °F 86% 29.97 in 7.0 mi SSW 12.7 mph - N/A   Scattered Clouds
8:53 PM 30.2 °F 20.8 °F 26.6 °F 86% 29.96 in 7.0 mi SSW 11.5 mph - N/A   Scattered Clouds
9:53 PM 30.2 °F 21.3 °F 26.6 °F 86% 29.94 in 8.0 mi South 10.4 mph - N/A   Mostly Cloudy
10:53 PM 32.0 °F 23.6 °F 24.8 °F 75% 29.93 in 10.0 mi SSW 10.4 mph - N/A   Scattered Clouds